Weather History for Richmond, VA

Change the Weather History Date:

Thursday, April 4, 2013

  Actual Average Record
Temperature  
Mean Temperature 41 °F 55 °F  
Max Temperature 51 °F 67 °F 87 °F (2011)
Min Temperature 31 °F 43 °F 26 °F (1992)
Degree Days  
Heating Degree Days 24 11  
Month to date heating degree days 71 45  
Since 1 July heating degree days 3463 3497  
Cooling Degree Days 0 1  
Month to date cooling degree days 0 3  
Year to date cooling degree days 1 9  
Moisture  
Dew Point 24 °F    
Average Humidity 63    
Maximum Humidity 100    
Minimum Humidity 26    
Precipitation  
Precipitation 0.62 in 0.11 in 1.45 in (1998)
Month to date precipitation 0.62 0.47  
Year to date precipitation 14.12 10.31  
Snow  
Snow T in 0.00 in T in (2013)
Month to date snowfall T 0.0  
Since 1 July snowfall 8.6 10.2  
Snow Depth 0.00 in    
Sea Level Pressure  
Sea Level Pressure 30.30 in    
Wind  
Wind Speed 6 mph (ENE)    
Max Wind Speed 15 mph    
Max Gust Speed 20 mph    
Visibility 9 miles    
Events Rain    
T = Trace of Precipitation, MM = Missing Value Source: NWS Daily Summary

Daily Weather History Graph

Daily Weather History Graph

Search for Another Location

Airport:

Trip Planner

Search our weather history database for the weather conditions in past years. The results will help you decide how hot, cold, wet, or windy it might be!

Date:

Astronomy

Apr. 04, 2013 Rise Set
Actual Time 6:49 AM EDT 7:34 PM EDT
Civil Twilight 6:23 AM EDT 8:01 PM EDT
Nautical Twilight 5:52 AM EDT 8:32 PM EDT
Astronomical Twilight 5:20 AM EDT 9:05 PM EDT
Moon 3:08 AM EDT (4/4) 1:57 PM EDT (4/4)
Length of Visible Light 13h 37m
Length of Day
12h 45m
Waning Crescent, 34% of the Moon is Illuminated
Apr 4
Waning Crescent
Apr 10
New
Apr 18
First Quarter
Apr 25
Full
May 2
Last Quarter

Hourly Weather History & Observations

Time (EDT) Temp. Windchill Dew Point Humidity Pressure Visibility Wind Dir Wind Speed Gust Speed Precip Events Conditions
12:54 AM 39.0 °F 33.4 °F 15.1 °F 38% 30.41 in 10.0 mi NE 8.1 mph - N/A   Mostly Cloudy
1:54 AM 37.9 °F 31.5 °F 16.0 °F 41% 30.42 in 10.0 mi NNE 9.2 mph - N/A   Mostly Cloudy
2:54 AM 35.1 °F 28.6 °F 16.0 °F 46% 30.41 in 10.0 mi NNE 8.1 mph - N/A   Mostly Cloudy
3:54 AM 34.0 °F 29.8 °F 16.0 °F 48% 30.40 in 10.0 mi NNE 4.6 mph - N/A   Scattered Clouds
4:54 AM 32.0 °F 25.6 °F 18.0 °F 56% 30.40 in 10.0 mi NNE 6.9 mph - N/A   Scattered Clouds
5:54 AM 32.0 °F 27.5 °F 18.0 °F 56% 30.40 in 10.0 mi NNE 4.6 mph - N/A   Mostly Cloudy
6:54 AM 32.0 °F 28.7 °F 18.0 °F 56% 30.41 in 10.0 mi NE 3.5 mph - N/A   Mostly Cloudy
7:54 AM 35.1 °F - 19.9 °F 54% 30.44 in 10.0 mi Calm Calm - N/A   Overcast
8:54 AM 37.0 °F 29.8 °F 18.0 °F 46% 30.44 in 10.0 mi NNE 10.4 mph - N/A   Overcast
9:54 AM 41.0 °F 37.1 °F 18.0 °F 40% 30.43 in 10.0 mi East 5.8 mph - N/A   Overcast
10:54 AM 44.1 °F 41.5 °F 17.1 °F 34% 30.42 in 10.0 mi Variable 4.6 mph - N/A   Overcast
11:54 AM 46.0 °F 42.5 °F 17.1 °F 31% 30.38 in 10.0 mi ESE 6.9 mph - N/A   Overcast
12:54 PM 48.0 °F - 16.0 °F 28% 30.34 in 10.0 mi Calm Calm - N/A   Overcast
1:54 PM 48.9 °F - 19.0 °F 31% 30.31 in 10.0 mi SSE 5.8 mph - N/A   Overcast
2:54 PM 48.9 °F - 21.0 °F 33% 30.27 in 10.0 mi SSW 4.6 mph - N/A   Overcast
3:54 PM 50.0 °F - 19.9 °F 31% 30.27 in 10.0 mi WSW 4.6 mph - N/A   Overcast
4:54 PM 48.9 °F - 18.0 °F 29% 30.24 in 10.0 mi South 3.5 mph - N/A   Overcast
5:54 PM 48.0 °F - 24.1 °F 39% 30.23 in 10.0 mi South 3.5 mph - N/A   Overcast
6:54 PM 44.1 °F 38.6 °F 32.0 °F 63% 30.22 in 10.0 mi South 10.4 mph - 0.00 in Rain Light Ice Pellets
7:05 PM 42.8 °F 38.6 °F 33.8 °F 70% 30.20 in 10.0 mi South 6.9 mph - 0.00 in Rain Light Rain
7:54 PM 41.0 °F - 35.1 °F 79% 30.19 in 7.0 mi Calm Calm - 0.03 in Rain Light Rain
8:54 PM 39.9 °F 35.8 °F 36.0 °F 86% 30.17 in 5.0 mi ENE 5.8 mph - 0.06 in Rain Light Rain
9:54 PM 39.0 °F 34.8 °F 37.0 °F 93% 30.14 in 4.0 mi NE 5.8 mph - 0.08 in Rain Rain
10:54 PM 37.9 °F 34.4 °F 37.0 °F 97% 30.14 in 4.0 mi East 4.6 mph - 0.10 in Rain Light Rain
11:13 PM 39.2 °F 35.9 °F 37.4 °F 93% 30.09 in 3.0 mi ENE 4.6 mph - 0.02 in Rain Light Rain
11:31 PM 37.4 °F 29.8 °F 37.4 °F 100% 30.06 in 3.0 mi NNE 11.5 mph - 0.08 in Rain Rain
11:54 PM 37.9 °F 30.9 °F 36.0 °F 93% 30.06 in 3.0 mi NNE 10.4 mph - 0.21 in Rain Rain